Theta_e
330 331 332 333 331 330 326 320 318 318 320 320 320 320 319 320 321 321 321 324 323 323 323 321 320 319 316 315 313 310 308 305 306 303 302 302 304 305 306 307 306 303 305
328 329 330 332 332 329 327 322 319 318 317 319 320 321 319 319 320 321 322 323 323 324 322 322 320 319 315 314 313 311 309 307 307 307 304 300 299 301 304 305 303 304 305
326 326 327 329 331 330 328 324 322 319 317 319 321 322 321 320 318 319 320 321 323 323 322 322 320 320 319 316 316 313 311 310 307 304 303 299 298 300 300 300 302 303 304
327 327 327 327 329 331 331 329 325 322 318 319 321 320 318 316 317 319 320 320 322 322 322 322 320 320 318 317 317 315 314 311 308 304 302 301 299 296 296 298 299 301 300
327 327 327 327 328 330 330 331 328 324 320 319 321 320 320 319 320 319 320 320 322 322 321 321 321 319 317 317 314 312 310 310 309 306 302 301 300 300 296 295 296 298 300
327 329 330 329 328 329 329 330 328 325 323 321 321 322 321 320 319 319 318 319 320 321 321 321 320 319 317 314 312 311 309 309 307 305 303 300 298 298 296 295 297 296 298
327 329 329 328 327 326 327 327 327 325 324 322 322 322 322 322 320 320 319 318 318 319 320 320 319 317 316 313 311 309 308 306 304 303 302 302 301 299 298 296 297 294 298
328 329 330 330 328 327 326 325 325 325 325 323 323 323 323 321 320 321 320 319 319 319 321 320 319 316 314 312 310 308 306 305 304 302 301 300 300 300 298 296 295 294 294
327 328 330 330 328 327 326 325 324 324 325 324 324 323 323 322 321 322 322 320 321 320 321 320 318 315 312 310 308 308 305 304 303 302 301 299 299 300 300 298 297 294 292
326 328 329 331 329 328 327 326 325 323 324 325 324 322 322 323 322 322 321 321 322 321 320 318 316 313 310 308 308 307 304 304 302 300 299 298 298 297 298 298 298 296 293
324 326 328 331 329 327 327 326 325 324 323 324 324 323 323 322 322 322 322 322 322 321 319 317 315 313 310 309 307 306 303 302 295 298 297 297 297 296 296 296 296 295 293
324 326 327 328 328 326 326 326 326 325 324 324 323 323 324 323 322 322 322 323 321 321 319 317 315 312 309 306 303 303 298 296 295 292 296 295 295 295 295 294 294 294 295
318 320 324 326 327 326 325 325 326 325 325 324 323 323 323 322 322 322 322 322 321 320 319 317 314 311 309 305 302 302 297 295 293 293 293 294 294 294 293 293 293 293 291
315 317 319 323 327 327 325 324 325 326 325 324 323 323 323 322 322 322 322 322 322 320 319 317 314 313 309 304 300 300 295 293 291 292 294 294 295 294 293 292 292 292 291
314 316 317 321 323 326 326 325 325 325 326 324 323 323 324 324 323 322 322 322 321 320 319 317 315 313 309 301 299 298 294 291 293 292 292 294 295 292 293 292 292 292 291
312 313 315 315 318 322 325 325 325 325 325 324 323 324 324 323 322 322 322 321 320 319 319 317 315 312 303 294 293 297 293 295 290 288 291 291 292 290 288 286 285 287 290
311 313 314 316 318 319 322 325 326 326 325 324 323 323 323 323 322 321 320 320 319 318 317 317 314 310 305 292 292 292 299 290 291 289 290 289 291 292 291 286 284 283 282
312 314 317 318 319 320 319 324 326 325 324 323 323 322 322 321 321 320 320 320 319 317 315 316 313 308 299 291 291 291 297 291 290 290 289 291 292 293 292 290 289 288 287
314 316 318 318 319 320 320 322 323 324 323 323 322 321 321 320 320 319 318 320 318 316 314 314 310 302 299 290 290 291 291 289 288 290 290 290 292 290 289 290 288 287 287
315 316 318 320 321 321 322 322 322 322 322 322 322 321 321 320 319 318 317 317 316 313 312 309 305 297 295 289 289 291 295 288 288 288 291 289 291 286 286 289 288 285 286
315 318 319 319 320 322 323 322 321 321 321 320 320 320 320 319 319 318 316 315 313 312 308 301 299 296 295 291 289 290 291 288 286 286 286 287 286 285 285 286 288 285 286
312 316 316 316 318 319 320 319 318 318 319 318 318 318 318 317 316 316 314 311 310 304 301 299 296 294 294 290 289 289 289 288 286 286 287 287 285 285 284 284 283 282 282
306 308 311 311 312 313 315 315 315 316 316 316 316 316 315 315 314 313 311 305 303 302 300 298 294 292 292 290 288 288 287 286 286 287 287 286 285 284 283 283 282 281 284
304 306 306 306 307 309 310 311 312 313 314 315 315 315 313 312 313 311 309 306 304 301 299 295 292 288 287 288 288 287 287 286 285 285 286 285 284 284 285 283 282 284 285
303 304 303 303 304 306 307 308 308 310 310 312 313 313 312 310 311 310 310 307 308 304 301 299 297 289 284 287 288 287 285 284 284 284 284 284 285 285 284 283 283 284 284
301 301 301 301 302 303 304 305 305 306 308 308 310 310 311 311 310 309 308 292 290 289 290 291 292 290 289 287 287 287 285 284 283 284 283 283 284 283 284 283 283 284 282
Wind_Speed
16 16 16 17 17 16 17 18 17 17 13 11 10 9 9 9 8 8 9 11 10 10 8 6 7 5 5 6 6 6 6 5 5 4 4 4 3 0 1 1 2 3 2
17 17 18 18 17 18 18 19 18 19 15 12 10 8 9 8 8 8 9 10 11 11 9 8 7 6 6 7 7 6 4 4 4 3 2 3 6 4 0 1 1 2 1
19 19 19 19 18 19 19 19 19 20 18 16 11 8 7 7 8 8 9 10 12 12 10 9 7 7 6 6 7 6 5 2 2 4 4 3 2 1 4 3 1 0 1
19 19 20 20 20 20 19 20 20 20 19 19 15 16 12 11 9 10 9 9 12 11 10 9 9 8 6 5 6 5 4 4 2 3 2 4 5 3 3 5 3 2 2
20 20 21 22 21 19 19 19 20 20 20 20 18 15 14 11 10 9 11 11 11 11 11 10 9 8 6 5 5 5 5 3 1 1 2 2 3 4 4 4 5 4 3
20 19 19 19 19 18 18 19 21 21 21 20 21 20 19 15 11 12 11 10 9 9 11 11 10 9 7 7 6 5 5 2 1 2 2 3 4 2 4 4 2 4 5
19 19 20 20 19 21 19 18 21 22 22 22 21 21 19 18 16 15 12 13 10 11 13 13 11 9 9 9 8 7 7 6 4 4 3 1 1 3 3 4 2 4 3
16 18 20 19 20 20 20 20 21 21 22 22 21 19 19 13 13 16 12 11 11 12 13 13 12 11 10 9 8 6 6 6 5 6 3 3 2 2 3 3 4 4 4
16 17 18 18 18 19 20 20 20 21 22 23 19 19 18 18 16 17 15 12 13 11 14 15 13 12 12 11 10 7 8 8 7 6 5 4 3 2 2 3 3 4 4
14 15 15 16 16 17 17 18 19 21 20 21 19 17 18 18 16 16 17 16 14 14 14 15 14 14 14 14 13 9 9 9 7 5 7 5 4 4 3 2 2 3 5
14 13 13 14 15 15 17 17 18 19 18 19 19 18 17 18 18 16 16 17 16 16 16 17 16 16 14 13 12 11 12 11 7 8 8 7 7 4 4 3 3 3 3
11 11 11 13 14 15 15 16 17 17 18 18 18 19 17 18 18 18 18 17 18 16 17 17 17 16 16 13 12 14 9 12 12 7 9 8 6 6 4 4 3 2 2
8 7 8 10 12 13 14 15 16 17 16 17 17 18 18 19 19 19 18 18 18 18 17 17 18 18 16 16 13 14 14 9 11 9 9 8 8 7 5 5 5 3 3
6 6 6 8 10 11 13 14 15 16 16 17 18 18 19 20 19 19 19 19 19 19 19 18 18 18 16 16 14 14 12 11 9 8 9 9 9 8 7 6 5 4 4
5 5 5 5 7 10 11 13 14 15 16 17 18 18 18 18 18 18 19 18 19 18 19 18 18 17 15 13 15 15 13 11 12 9 7 7 8 4 3 5 6 5 4
5 1 1 2 5 8 11 12 13 14 15 16 17 16 17 17 18 18 18 18 18 17 18 18 18 18 12 16 18 19 13 14 12 10 11 6 10 9 6 2 7 7 5
4 1 1 1 1 4 7 11 13 13 15 15 15 15 16 16 16 16 17 18 18 17 17 18 17 18 17 19 21 19 15 13 12 11 10 8 9 10 10 7 6 4 1
4 3 2 2 2 3 5 7 9 11 12 12 12 13 14 14 15 16 17 17 16 17 15 17 18 16 12 23 24 18 14 11 11 12 11 12 10 13 12 11 10 8 7
6 4 3 4 4 4 1 6 8 9 10 10 11 11 12 13 13 15 16 15 14 14 14 14 16 16 14 24 25 21 13 11 13 11 11 9 12 13 11 11 9 7 6
6 5 6 7 7 7 5 6 6 7 7 7 8 8 10 11 12 12 12 12 12 13 11 12 14 13 12 24 27 22 13 12 10 9 13 11 11 20 14 12 9 8 7
9 9 10 10 10 8 7 7 7 6 5 5 6 7 8 9 9 10 10 11 12 11 12 12 12 12 13 18 25 24 13 11 10 9 9 8 15 20 18 12 9 6 5
10 10 10 11 10 8 8 9 9 6 5 5 6 6 7 6 6 9 9 10 10 11 11 11 10 9 11 16 23 23 14 16 12 12 9 10 20 21 18 12 10 9 4
10 9 10 11 10 10 9 9 7 5 4 4 4 5 6 6 6 8 9 8 9 9 9 9 9 9 9 9 22 23 14 17 9 8 9 17 21 20 15 11 14 10 7
10 9 10 10 10 9 10 10 7 5 2 2 2 4 6 6 7 6 7 8 9 9 9 10 10 8 8 9 11 12 12 16 9 11 10 14 15 14 11 12 11 9 8
8 8 9 8 9 9 9 10 9 7 5 4 3 4 4 6 6 7 7 9 10 10 11 11 10 10 11 15 19 19 13 11 9 11 9 10 11 11 10 9 10 9 8
7 7 8 7 8 8 8 8 10 10 8 7 5 4 5 5 6 6 7 4 2 5 6 4 8 9 8 17 21 22 22 23 23 12 11 11 10 11 10 10 10 10 10
Wind_Direction
179 173 179 178 181 172 174 178 179 178 181 183 186 184 189 187 192 191 172 181 174 175 178 167 165 170 158 131 144 136 134 123 135 138 130 118 132 133 36 62 19 60 80
177 177 182 183 188 177 183 182 185 181 188 188 192 190 199 188 194 191 181 191 182 179 183 179 179 177 144 155 164 170 164 133 180 309 306 206 167 168 84 349 85 26 90
184 183 184 187 188 187 189 190 187 183 189 188 186 186 177 198 193 188 189 192 191 187 193 185 182 177 185 179 179 188 206 164 168 267 314 263 341 157 142 152 57 45 82
190 188 188 187 192 194 192 194 190 186 188 190 185 192 192 192 196 193 192 189 197 193 192 185 177 183 193 179 185 190 215 245 166 161 263 292 316 273 198 172 165 200 209
189 191 192 190 193 191 192 196 194 191 189 190 196 195 207 200 189 190 193 199 194 198 193 186 183 181 192 181 175 172 209 197 226 221 182 248 245 244 282 278 159 202 210
188 192 191 191 191 190 195 195 198 196 193 194 201 200 202 204 196 191 189 193 192 193 198 191 187 181 173 169 174 169 166 184 142 150 195 250 284 242 251 260 259 297 156
184 187 187 190 190 191 194 196 201 201 197 198 201 203 205 208 198 195 196 190 193 196 193 193 188 182 179 171 169 172 157 164 161 169 154 162 280 304 289 278 268 280 162
181 186 189 191 191 190 194 197 200 204 198 199 205 203 206 204 205 200 199 200 198 199 193 194 189 178 172 172 171 169 164 155 156 158 162 154 151 252 286 293 288 244 229
179 184 185 190 191 190 195 196 200 203 200 202 204 201 203 206 206 201 205 202 203 196 192 193 186 181 172 175 172 177 171 166 164 164 162 176 155 189 231 271 285 306 299
175 178 183 185 189 195 195 197 203 204 202 202 205 203 201 204 207 205 201 203 203 199 185 189 186 183 184 178 182 173 175 171 171 161 176 177 171 165 186 209 249 273 297
171 171 176 176 184 191 196 197 201 205 203 200 205 205 202 204 206 205 202 206 202 196 189 190 190 189 188 188 186 178 183 178 163 178 174 182 173 176 188 199 208 227 264
157 159 169 174 181 190 195 194 199 203 203 200 203 206 204 203 206 207 204 205 203 197 195 193 192 192 191 186 196 180 168 173 177 167 176 182 186 185 180 212 202 212 213
143 151 170 182 187 190 192 196 198 201 203 200 200 204 206 205 207 207 206 203 204 200 199 195 195 194 195 188 188 191 183 166 169 176 179 180 184 189 177 211 193 192 218
157 153 171 193 192 188 189 193 194 200 200 201 200 202 205 206 207 206 206 204 203 202 200 201 200 199 194 190 186 190 169 172 170 171 189 184 189 191 182 200 208 206 247
179 169 154 181 193 192 192 195 194 196 197 201 203 207 205 205 210 207 206 205 204 205 201 200 203 197 194 194 181 181 175 169 176 173 193 183 197 119 147 214 199 216 245
181 166 133 161 199 207 203 197 198 195 196 201 207 205 203 206 208 206 206 206 207 207 204 204 202 198 199 180 180 174 173 182 173 163 188 187 170 163 153 166 41 15 281
164 147 2 262 212 228 218 208 201 194 198 201 203 203 204 204 206 207 206 205 206 204 204 206 204 203 203 169 173 176 177 167 173 169 175 197 190 185 180 167 144 131 81
142 87 346 353 12 304 239 217 200 192 198 201 200 199 201 205 204 205 208 207 205 206 204 203 204 203 196 170 173 168 171 166 168 172 181 191 188 195 186 184 197 207 192
85 66 23 25 30 29 139 180 180 182 190 193 195 194 197 204 204 209 212 211 208 206 204 206 203 199 186 169 170 168 164 167 171 182 191 196 194 160 178 194 203 204 210
98 94 84 81 70 65 92 132 144 164 181 185 188 187 192 202 204 208 214 216 213 206 205 208 204 195 172 174 172 175 180 173 172 174 195 201 205 149 168 204 199 213 212
108 107 88 78 72 75 87 98 118 119 117 142 165 178 191 201 202 203 203 202 202 203 202 195 196 186 179 179 180 179 174 169 166 174 181 179 151 158 176 214 203 218 184
97 94 91 81 71 65 79 84 77 80 103 135 159 175 186 184 201 200 202 210 204 199 191 195 189 192 180 179 184 179 175 167 167 177 175 171 162 163 173 189 128 129 181
83 78 83 79 61 52 37 69 62 78 113 144 160 177 184 191 202 194 190 181 195 206 199 201 196 190 182 183 183 176 163 166 166 173 169 149 165 166 169 175 151 169 200
73 69 71 69 58 45 44 38 32 24 348 271 207 194 210 201 203 200 198 202 200 207 205 199 195 180 174 177 178 181 172 174 168 150 147 156 165 177 175 164 173 203 195
73 59 57 49 46 36 38 32 22 7 339 322 289 260 246 215 225 224 215 216 220 211 204 210 208 187 192 197 184 178 177 169 162 145 143 158 176 180 177 181 190 196 196
66 58 47 34 22 15 13 16 11 4 351 325 306 293 279 250 244 241 230 173 338 216 201 191 188 197 188 166 182 179 170 167 157 161 164 169 179 185 186 189 191 193 198